Sault Ste Marie, MI

1:44 AM EDT on August 21, 2017 (GMT -0400)
Sault Ste Marie Municipal / Sanderson Field

Weather History for KANJ - June, 2013

Change the Weather History Date:

Sunday, June 9, 2013

  Actual Average Record
Temperature  
Mean Temperature 60 °F 58 °F  
Max Temperature 75 °F 70 °F 88 °F (1959)
Min Temperature 44 °F 47 °F 30 °F (1977)
Degree Days  
Heating Degree Days 5 7  
Month to date heating degree days 86 73  
Since 1 June heating degree days 86 73  
Since 1 July heating degree days 8302 8556  
Cooling Degree Days 0 1  
Month to date cooling degree days 1 2  
Year to date cooling degree days 10 7  
Since 1 June cooling degree days 1 2  
Growing Degree Days 10 (Base 50)    
Moisture  
Dew Point 43 °F    
Average Humidity 57    
Maximum Humidity 83    
Minimum Humidity 31    
Precipitation  
Precipitation 0.00 in 0.09 in 1.75 in (1974)
Month to date precipitation 0.43 0.81  
Year to date precipitation 14.69 11.25  
Sea Level Pressure  
Sea Level Pressure 30.09 in    
Wind  
Wind Speed 6 mph (ESE)    
Max Wind Speed 17 mph    
Max Gust Speed 23 mph    
Visibility 10 miles    
Events      
T = Trace of Precipitation, MM = Missing Value Source: NWS Daily Summary

Daily Weather History Graph

Daily Weather History Graph

Search for Another Location

Airport or City:

Trip Planner

Search our weather history database for the weather conditions in past years. The results will help you decide how hot, cold, wet, or windy it might be!

Date:

Astronomy

Jun. 09, 2013 Rise Set
Actual Time 5:44 AM EDT 9:29 PM EDT
Civil Twilight 5:06 AM EDT 10:07 PM EDT
Nautical Twilight 4:13 AM EDT 11:00 PM EDT
Astronomical Twilight 3:00 AM EDT 12:13 AM EDT
Moon 6:44 AM EDT (6/9) 10:10 PM EDT (6/9)
Length of Visible Light 17h 01m
Length of Day
15h 44m
New Moon, 1% of the Moon is Illuminated
Jun 9
New Moon
Jun 16
First Quarter
Jun 23
Full
Jun 30
Last Quarter
Jul 8
New

Hourly Weather History & Observations

Time (EDT) Temp. Windchill Dew Point Humidity Pressure Visibility Wind Dir Wind Speed Gust Speed Precip Events Conditions
12:55 AM 48.0 °F - 37.9 °F 68% 30.07 in 10.0 mi Calm Calm - N/A   Clear
1:55 AM 48.0 °F - 39.0 °F 71% 30.07 in 10.0 mi Calm Calm - N/A   Clear
2:55 AM 45.0 °F - 39.0 °F 80% 30.08 in 10.0 mi Calm Calm - N/A   Clear
3:55 AM 45.0 °F - 37.9 °F 76% 30.09 in 10.0 mi Calm Calm - N/A   Clear
4:55 AM 45.0 °F - 39.9 °F 82% 30.10 in 10.0 mi Calm Calm - N/A   Clear
5:55 AM 45.0 °F 42.6 °F 39.9 °F 82% 30.11 in 10.0 mi ENE 4.6 mph - N/A   Clear
6:55 AM 48.0 °F - 41.0 °F 77% 30.12 in 10.0 mi NE 3.5 mph - N/A   Clear
7:55 AM 52.0 °F - 42.1 °F 69% 30.14 in 10.0 mi NE 3.5 mph - N/A   Clear
8:55 AM 57.9 °F - 45.0 °F 62% 30.14 in 10.0 mi Calm Calm - N/A   Clear
9:55 AM 63.0 °F - 46.9 °F 56% 30.14 in 10.0 mi South 4.6 mph - N/A   Clear
10:55 AM 66.9 °F - 46.9 °F 49% 30.12 in 10.0 mi East 3.5 mph - N/A   Clear
11:55 AM 70.0 °F - 45.0 °F 41% 30.12 in 10.0 mi ESE 5.8 mph - N/A   Clear
12:55 PM 71.1 °F - 44.1 °F 38% 30.12 in 10.0 mi Variable 6.9 mph - N/A   Clear
1:55 PM 72.0 °F - 41.0 °F 33% 30.11 in 10.0 mi SE 9.2 mph - N/A   Clear
2:55 PM 73.9 °F - 43.0 °F 33% 30.10 in 10.0 mi SE 12.7 mph 21.9 mph N/A   Clear
3:55 PM 75.0 °F - 43.0 °F 32% 30.09 in 10.0 mi SE 11.5 mph 20.7 mph N/A   Clear
4:55 PM 73.9 °F - 42.1 °F 32% 30.07 in 10.0 mi SE 15.0 mph 21.9 mph N/A   Clear
5:55 PM 73.0 °F - 44.1 °F 35% 30.07 in 10.0 mi ESE 8.1 mph 17.3 mph N/A   Clear
6:55 PM 72.0 °F - 41.0 °F 33% 30.06 in 10.0 mi SSE 11.5 mph 20.7 mph N/A   Clear
7:55 PM 69.1 °F - 43.0 °F 39% 30.06 in 10.0 mi SE 6.9 mph - N/A   Clear
8:55 PM 66.0 °F - 45.0 °F 47% 30.05 in 10.0 mi ESE 5.8 mph - N/A   Clear
9:55 PM 63.0 °F - 45.0 °F 52% 30.06 in 10.0 mi East 4.6 mph - N/A   Clear
10:55 PM 61.0 °F - 45.0 °F 56% 30.07 in 10.0 mi East 3.5 mph - N/A   Clear
11:55 PM 60.1 °F - 46.0 °F 60% 30.05 in 10.0 mi East 4.6 mph - N/A   Clear